| time (UTC) | temp C | wind direction | speed KPH | gust KPH | rain 1hr cm | rain 24hr cm | rain mn cm | humidity % | barometer mb |
| 20260507035554 | 10 | 0.0 | 0.0 | 0.00 | 0.00 | 0.00 | 97 | 1011.4 | |
| 20260507033549 | 10 | 0.0 | 0.0 | 0.00 | 0.00 | 0.00 | 97 | 1011.4 | |
| 20260507025540 | 10 | 0.0 | 0.0 | 0.00 | 0.00 | 0.00 | 99 | 1011.3 | |
| 20260507023534 | 10 | 0.0 | 0.0 | 0.00 | 0.00 | 0.00 | 98 | 1011.5 | |
| 20260507021257 | 10 | 0.0 | 0.0 | 0.00 | 0.00 | 0.00 | 96 | 1011.4 | |
| 20260507005237 | 11 | 0.0 | 0.0 | 0.00 | 0.00 | 0.00 | 96 | 1010.8 | |
| 20260507003232 | 11 | 0.0 | 0.0 | 0.00 | 0.00 | 0.00 | 95 | 1010.8 | |
| 20260507001227 | 11 | 0.0 | 0.0 | 0.00 | 0.00 | 0.00 | 97 | 1010.8 | |
| 20260506233217 | 10 | 0.0 | 0.0 | 0.00 | 0.00 | 0.00 | 99 | 1010.9 | |
| 20260506225207 | 10 | 0.0 | 0.0 | 0.00 | 0.00 | 0.00 | 98 | 1010.7 | |
| 20260506221158 | 10 | 0.0 | 0.0 | 0.00 | 0.00 | 0.00 | 96 | 1010.7 | |
| 20260506213148 | 11 | 0.0 | 0.0 | 0.00 | 0.00 | 0.00 | 93 | 1010.4 | |
| 20260506205139 | 11 | 0.0 | 0.0 | 0.00 | 0.00 | 0.00 | 91 | 1010.5 | |
| 20260506203132 | 11 | 0.0 | 0.0 | 0.00 | 0.00 | 0.00 | 88 | 1010.4 | |
| 20260506185106 | 10 | 0.0 | 0.0 | 0.00 | 0.00 | 0.00 | 96 | 1009.4 | |
| 20260506165037 | 11 | 0.0 | 0.0 | 0.00 | 0.00 | 0.00 | 95 | 1008.0 | |
| 20260506161028 | 10 | 0.0 | 0.0 | 0.00 | 0.00 | 0.00 | 92 | 1007.3 | |
| 20260506155023 | 11 | 0.0 | 0.0 | 0.00 | 0.00 | 0.00 | 85 | 1007.5 | |
| 20260506145008 | 16 | 0.0 | 0.0 | 0.00 | 0.00 | 0.00 | 78 | 1005.9 | |
| 20260506140958 | 18 | 0.0 | 0.0 | 0.00 | 0.00 | 0.00 | 71 | 1006.3 | |
| 20260506134954 | 19 | 0.0 | 0.0 | 0.00 | 0.00 | 0.00 | 66 | 1006.7 | |
| 20260506132948 | 20 | 0.0 | 0.0 | 0.00 | 0.00 | 0.00 | 67 | 1006.9 | |
| 20260506124939 | 17 | 0.0 | 0.0 | 0.00 | 0.00 | 0.00 | 77 | 1007.6 | |
| 20260506122934 | 19 | 0.0 | 0.0 | 0.00 | 0.00 | 0.00 | 70 | 1007.4 | |
| 20260506110914 | 15 | 0.0 | 0.0 | 0.00 | 0.00 | 0.00 | 84 | 1008.3 | |
| 20260506104909 | 15 | 0.0 | 0.0 | 0.00 | 0.00 | 0.00 | 84 | 1008.3 | |
| 20260506102904 | 15 | 0.0 | 0.0 | 0.00 | 0.00 | 0.00 | 83 | 1008.4 | |
| 20260506100900 | 15 | 0.0 | 0.0 | 0.00 | 0.00 | 0.00 | 81 | 1008.4 | |
| 20260506094855 | 17 | 0.0 | 0.0 | 0.00 | 0.00 | 0.00 | 86 | 1008.3 | |
| 20260506092850 | 15 | 0.0 | 0.0 | 0.00 | 0.00 | 0.00 | 99 | 1008.4 | |
| 20260506090845 | 12 | 0.0 | 0.0 | 0.00 | 0.00 | 0.00 | 100 | 1008.5 | |
| 20260506084840 | 12 | 0.0 | 0.0 | 0.00 | 0.00 | 0.00 | 100 | 1008.4 | |
| 20260506082835 | 13 | 0.0 | 0.0 | 0.00 | 0.00 | 0.00 | 97 | 1008.3 | |
| 20260506080831 | 13 | 0.0 | 0.0 | 0.00 | 0.00 | 0.00 | 97 | 1008.0 | |
| 20260506072820 | 13 | 0.0 | 0.0 | 0.00 | 0.00 | 0.00 | 100 | 1008.3 | |
| 20260506070815 | 12 | 0.0 | 0.0 | 0.00 | 0.00 | 0.00 | 100 | 1008.8 | |
| 20260506050746 | 12 | 0.0 | 0.0 | 0.00 | 0.00 | 0.00 | 100 | 1009.3 | |
| 20260506044741 | 12 | 0.0 | 0.0 | 0.00 | 0.00 | 0.00 | 100 | 1009.3 | |
| 20260506042736 | 12 | 0.0 | 0.0 | 0.00 | 0.00 | 0.00 | 100 | 1009.3 |